(154200) = 2002 GH170 = 2006 BO273 = 2006 BX149

Discovered at Socorro on 2002-04-09 by LINEAR.

Orbit

Orbit type: Main Belt

Note: WebGL enabled browser required.

epoch2023-09-13.0
epoch JD2460200.5
perihelion date2018-10-18.58815
perihelion JD2458410.08815
argument of perihelion (°)283.25231
ascending node (°)25.18742
inclination (°)11.99524
eccentricity0.0388097
perihelion distance (AU)2.8432404
Tisserand w.r.t. Jupiter3.2
ΔV w.r.t. Earth (km/sec)11.1
semimajor axis (AU)2.9580409
mean anomaly (°)346.85704
mean daily motion (°/day)0.19373030
aphelion distance (AU)3.073
period (years)5.09
P-vector [x]0.61264582
P-vector [y]-0.62051485
P-vector [z]-0.48951651
Q-vector [x]0.78539286
Q-vector [y]0.54728323
Q-vector [z]0.28920429
absolute magnitude15.28
phase slope0.15
uncertainty0
referenceMPO 777946
observations used842
oppositions19
arc length (days)17763
first opposition used1973
last opposition used2022
residual rms (arc-secs)0.73
perturbers coarse indicatorM-v
perturbers precise indicator003Ek
first observation date used1973-09-30.0
last observation date used2022-05-19.0
computer nameMPCLINUX
JD of orbit computation2456966.708226
perihelion JD uncertainty (days)7.9788E-04
argument of perihelion uncertainty (°)1.5440E-04
ascending node uncertainty (°)1.9756E-05
inclination uncertainty (°)1.2301E-05
eccentricity uncertainty 3.7670E-08
perihelion distance uncertainty (AU)1.1240E-07
Minimum Orbit Intersection Distances (in AU)
for orbit epoch: 2460200.5, reference: E2023-VB5
Mercury2.39963
Venus2.1261
Earth1.85995
Mars1.36927
Jupiter2.02809
Saturn6.1027
Uranus15.4244
Neptune26.8995

Observations

855 total observations over interval: 1973 09 30.24826 – 2022 05 19.272560
These data are available for download (format description).

Date (UT) J2000 RA J2000 Dec Magn Location Ref
1973 09 30.24826 00 37 32.87 -02 19 18.3   675 – Palomar Mountain MPS 213623
1973 09 30.31476 00 37 29.01 -02 19 25.5   675 – Palomar Mountain MPS 213623
1973 10 05.35382 00 32 58.80 -02 27 17.5   675 – Palomar Mountain MPS 213623
1973 10 05.41597 00 32 55.30 -02 27 24.1   675 – Palomar Mountain MPS 213623
2001 01 26.37617 09 48 47.85 +30 41 12.2 19.1   704 – Lincoln Laboratory ETS, New Mexico MPS 173853
2001 01 26.39115 09 48 47.04 +30 41 15.2 19.8   704 – Lincoln Laboratory ETS, New Mexico MPS 173853
2001 01 26.40615 09 48 46.28 +30 41 20.4 19.1   704 – Lincoln Laboratory ETS, New Mexico MPS 173853
2001 01 26.42126 09 48 45.41 +30 41 23.9 19.9   704 – Lincoln Laboratory ETS, New Mexico MPS 173853
2002 04 09.32689 14 34 16.69 -18 04 06.7 19.5   704 – Lincoln Laboratory ETS, New Mexico MPS 59912
2002 04 09.33909 14 34 16.13 -18 04 07.2 19.8   704 – Lincoln Laboratory ETS, New Mexico MPS 59912
2002 04 09.35119 14 34 15.49 -18 04 08.2 19.5   704 – Lincoln Laboratory ETS, New Mexico MPS 59912
2002 04 14.34230 14 30 13.66 -18 05 58.3 18.9   704 – Lincoln Laboratory ETS, New Mexico MPS 59912
2002 04 14.35635 14 30 12.94 -18 05 57.9 19.6   704 – Lincoln Laboratory ETS, New Mexico MPS 59912
2002 04 14.37052 14 30 12.23 -18 05 59.0 19.8   704 – Lincoln Laboratory ETS, New Mexico MPS 59912
2002 04 14.38459 14 30 11.47 -18 05 58.5 19.6   704 – Lincoln Laboratory ETS, New Mexico MPS 59912
2002 04 14.39866 14 30 10.74 -18 05 58.2 19.7   704 – Lincoln Laboratory ETS, New Mexico MPS 59912
2002 05 18.28150 14 00 11.53 -17 39 35.6 19.9   644 – Palomar Mountain/NEAT MPS 173853
2002 05 18.30247 14 00 10.55 -17 39 34.2 19.7   644 – Palomar Mountain/NEAT MPS 173853
2002 05 18.32705 14 00 09.38 -17 39 32.2 19.2   644 – Palomar Mountain/NEAT MPS 173853
2003 07 07.36983 21 53 57.42 -30 56 52.9 19.4   644 – Palomar Mountain/NEAT MPS 173853
2003 07 07.38948 21 53 56.93 -30 56 59.7 19.4   644 – Palomar Mountain/NEAT MPS 173853
2003 07 07.41064 21 53 56.38 -30 57 04.8 20.0   644 – Palomar Mountain/NEAT MPS 173853
2004 10 08.41302 03 18 54.54 +23 09 28.9 19.9 V 691 – Steward Observatory, Kitt Peak-Spacewatch MPS 173853
2004 10 08.44004 03 18 53.58 +23 09 32.9 19.9 V 691 – Steward Observatory, Kitt Peak-Spacewatch MPS 173853
2004 10 08.46692 03 18 52.62 +23 09 36.7 20.0 V 691 – Steward Observatory, Kitt Peak-Spacewatch MPS 173853
2004 10 21.27160 03 09 48.26 +23 32 34.7 19.8   704 – Lincoln Laboratory ETS, New Mexico MPS 173853
2004 10 21.28343 03 09 47.61 +23 32 34.4 19.7   704 – Lincoln Laboratory ETS, New Mexico MPS 173853
2004 10 21.29517 03 09 46.96 +23 32 35.5 20.2   704 – Lincoln Laboratory ETS, New Mexico MPS 173853
2004 10 21.30692 03 09 46.46 +23 32 36.3 20.1   704 – Lincoln Laboratory ETS, New Mexico MPS 173853
2004 10 21.31870 03 09 45.73 +23 32 36.6 20.4   704 – Lincoln Laboratory ETS, New Mexico MPS 173853
2004 11 09.37439 02 51 50.67 +23 35 33.8 18.6 R 703 – Catalina Sky Survey MPS 173853
2004 11 09.38814 02 51 49.81 +23 35 32.5 18.9 R 703 – Catalina Sky Survey MPS 173853
2004 11 09.40168 02 51 49.01 +23 35 30.7 19.3 R 703 – Catalina Sky Survey MPS 173853
2004 11 09.41527 02 51 48.12 +23 35 30.4 18.9 R 703 – Catalina Sky Survey MPS 173853
2006 01 22.30490 09 16 45.01 +33 41 43.3 19.4 V 703 – Catalina Sky Survey MPC 57081
2006 01 22.31302 09 16 44.54 +33 41 45.4 19.9 V 703 – Catalina Sky Survey MPC 57081
2006 01 22.32122 09 16 44.00 +33 41 47.7 20.0 V 703 – Catalina Sky Survey MPC 57081
2006 01 22.32949 09 16 43.60 +33 41 49.0 19.9 V 703 – Catalina Sky Survey MPC 57081
2006 01 24.33113 09 14 50.59 +33 50 08.0 19.4 R 699 – Lowell Observatory-LONEOS MPS 162933
2006 01 24.35398 09 14 49.18 +33 50 13.3   699 – Lowell Observatory-LONEOS MPS 162933
2006 01 24.37683 09 14 47.81 +33 50 19.2   699 – Lowell Observatory-LONEOS MPS 162933
2006 01 24.39967 09 14 46.46 +33 50 24.3   699 – Lowell Observatory-LONEOS MPS 162933
2006 01 27.26227 09 12 00.46 +34 01 17.6 20.3 V 703 – Catalina Sky Survey MPS 162933
2006 01 27.26932 09 12 00.10 +34 01 20.1 19.9 V 703 – Catalina Sky Survey MPS 162933
2006 01 27.27637 09 11 59.64 +34 01 21.2 19.9 V 703 – Catalina Sky Survey MPS 162933
2006 01 27.28341 09 11 59.20 +34 01 23.2 19.4 V 703 – Catalina Sky Survey MPS 162933
2007 02 21.49690 14 20 36.70 -12 24 58.5 20.0 V G96 – Mt. Lemmon Survey MPS 200317
2007 02 21.50266 14 20 36.78 -12 24 59.3 20.2 V G96 – Mt. Lemmon Survey MPS 200317
2007 02 21.50841 14 20 36.81 -12 25 00.3 20.4 V G96 – Mt. Lemmon Survey MPS 200317
2007 02 21.51406 14 20 36.81 -12 25 01.6 20.2 V G96 – Mt. Lemmon Survey MPS 200317
2007 03 11.40950 14 19 16.03 -13 09 04.8 19.9 V G96 – Mt. Lemmon Survey MPS 202964
2007 03 11.41669 14 19 15.88 -13 09 05.3 19.9 V G96 – Mt. Lemmon Survey MPS 202964
2007 03 11.42400 14 19 15.78 -13 09 06.5 19.9 V G96 – Mt. Lemmon Survey MPS 202964
2007 03 11.43137 14 19 15.60 -13 09 07.4 19.9 V G96 – Mt. Lemmon Survey MPS 202964
2007 03 18.44050 14 16 38.51 -13 18 49.2 20.4 V 691 – Steward Observatory, Kitt Peak-Spacewatch MPS 204530
2007 03 18.45815 14 16 37.98 -13 18 50.8 20.1 V 691 – Steward Observatory, Kitt Peak-Spacewatch MPS 204530
2007 03 18.47581 14 16 37.47 -13 18 51.5 20.5 V 691 – Steward Observatory, Kitt Peak-Spacewatch MPS 204530
2007 03 26.45739 14 12 16.38 -13 24 41.1 20.1 V 691 – Steward Observatory, Kitt Peak-Spacewatch MPS 205514
2007 03 26.47501 14 12 15.70 -13 24 41.4 20.2 V 691 – Steward Observatory, Kitt Peak-Spacewatch MPS 205514
2007 03 26.49287 14 12 14.98 -13 24 41.8 20.1 V 691 – Steward Observatory, Kitt Peak-Spacewatch MPS 205514
2007 03 31.32099 14 08 59.47 -13 25 39.3 19.8 R 644 – Palomar Mountain/NEAT MPS 206105
2007 03 31.34145 14 08 58.57 -13 25 39.3 20.0 R 644 – Palomar Mountain/NEAT MPS 206105
2007 03 31.36317 14 08 57.60 -13 25 39.4 19.5 R 644 – Palomar Mountain/NEAT MPS 206105
2007 04 16.32442 13 55 43.81 -13 17 04.6 19.5   704 – Lincoln Laboratory ETS, New Mexico MPS 207937
2007 04 16.33368 13 55 43.32 -13 17 01.7 19.7   704 – Lincoln Laboratory ETS, New Mexico MPS 207937
2007 04 16.34294 13 55 42.77 -13 17 02.4 19.6   704 – Lincoln Laboratory ETS, New Mexico MPS 207937
2007 04 16.35220 13 55 42.28 -13 17 01.6 18.8   704 – Lincoln Laboratory ETS, New Mexico MPS 207937
2007 04 19.31974 13 53 00.37 -13 13 56.3 18.5   704 – Lincoln Laboratory ETS, New Mexico MPS 207937
2007 04 19.32894 13 52 59.81 -13 13 53.5 18.9   704 – Lincoln Laboratory ETS, New Mexico MPS 207937
2007 04 19.34736 13 52 58.73 -13 13 52.7 19.0   704 – Lincoln Laboratory ETS, New Mexico MPS 207937
2007 04 20.20992 13 52 11.67 -13 12 55.1 19.8 V 691 – Steward Observatory, Kitt Peak-Spacewatch MPS 207937
2007 04 20.24412 13 52 09.73 -13 12 52.7 19.6 V 691 – Steward Observatory, Kitt Peak-Spacewatch MPS 207937
2007 04 20.26324 13 52 08.66 -13 12 51.6 19.7 V 691 – Steward Observatory, Kitt Peak-Spacewatch MPS 207937
2007 05 07.28155 13 37 11.92 -12 52 26.8 20.3 V 703 – Catalina Sky Survey MPS 210051
2007 05 07.29140 13 37 11.38 -12 52 25.6 20.2 V 703 – Catalina Sky Survey MPS 210051
2007 05 07.30126 13 37 10.95 -12 52 25.1 19.2 V 703 – Catalina Sky Survey MPS 210051
2007 05 07.31116 13 37 10.30 -12 52 25.2 20.1 V 703 – Catalina Sky Survey MPS 210051
2007 05 12.27245 13 33 23.29 -12 47 27.2 19.5 V G96 – Mt. Lemmon Survey MPS 210051
2007 05 12.27809 13 33 23.04 -12 47 26.6 19.6 V G96 – Mt. Lemmon Survey MPS 210051
2007 05 12.28371 13 33 22.78 -12 47 26.3 19.7 V G96 – Mt. Lemmon Survey MPS 210051
2007 05 12.28934 13 33 22.53 -12 47 26.0 19.6 V G96 – Mt. Lemmon Survey MPS 210051
2007 05 16.25540 13 30 38.66 -12 44 18.8 19.9 V G96 – Mt. Lemmon Survey MPS 210051
2007 05 16.26277 13 30 38.37 -12 44 18.5 19.8 V G96 – Mt. Lemmon Survey MPS 210051
2007 05 16.27002 13 30 38.08 -12 44 18.0 19.7 V G96 – Mt. Lemmon Survey MPS 210051
2007 05 16.27722 13 30 37.76 -12 44 18.0 19.5 V G96 – Mt. Lemmon Survey MPS 210051
2008 06 28.59370 21 16 39.21 -34 09 53.3 20.4 V E12 – Siding Spring Survey MPS 252396
2008 06 28.60475 21 16 38.89 -34 09 57.8 19.1 V E12 – Siding Spring Survey MPS 252396
2008 06 28.61590 21 16 38.60 -34 10 01.1 19.5 V E12 – Siding Spring Survey MPS 252396
2008 06 28.62719 21 16 38.31 -34 10 04.4 19.9 V E12 – Siding Spring Survey MPS 252396
